Weather Roundup
Issued by NWS Chicago, IL

Home | Current Version | Previous Version | Graphics & Text | Print | Product List | Glossary On
Versions: 1 2 3 4 5 6 7 8 9 10 11 12 13 14 15 16 17 18 19 20 21 22 23 24 25 26 27 28 29 30 31 32 33 34 35 36 37 38 39 40 41 42 43 44 45 46 47 48 49 50
000
NZUS59 KLOT 200008
HRRLOT

CHICAGO AREA WEATHER ROUNDUP
NATIONAL WEATHER SERVICE CHICAGO/ROMEOVILLE IL
600 PM CST SUN FEB 19 2017

NOTE: "FAIR" INDICATES FEW OR NO CLOUDS BELOW 12,000 FEET WITH NO
SIGNIFICANT WEATHER AND/OR OBSTRUCTIONS TO VISIBILITY.

* THESE STATIONS ARE NOT UNDER NWS QUALITY CONTROL. THEY ALSO MAY NOT
  REPORT WEATHER SUCH AS PRECIPITATION OR FOG.

ILZ005-006-012>014-019>023-200100-
NORTHEAST ILLINOIS

CITY           SKY/WX    TMP DP  RH WIND       PRES   REMARKS
OHARE          PTCLDY    56  31  38 E7        30.06R
6HR MIN TEMP:  56; 6HR MAX TEMP:  69;

MIDWAY         MOCLDY    53  31  42 E7        30.07R
6HR MIN TEMP:  53; 6HR MAX TEMP:  67;

AURORA         PTCLDY    55  39  54 E6        30.05S
6HR MIN TEMP:  55; 6HR MAX TEMP:  68;

LANSING*       CLEAR     56  37  49 CALM      30.08R
JOLIET*        CLEAR     58  43  57 SE6       30.06S
WAUKEGAN       CLEAR     43  31  62 E5        30.06S
6HR MIN TEMP:  43; 6HR MAX TEMP:  59;

DUPAGE AIRPORT CLEAR     54  37  52 SE3       30.05R
6HR MIN TEMP:  54; 6HR MAX TEMP:  67;

WHEELING       CLEAR     51  30  44 E5        30.07S
6HR MIN TEMP:  51; 6HR MAX TEMP:  64;

KANKAKEE*      CLEAR     54  43  65 CALM      30.08R
MORRIS*        CLEAR     59  34  39 CALM      30.04S
LEWIS AIRPORT* CLEAR     56  44  64 SE7       30.06S
NORTHERLY ISL    N/A     42  31  65 CALM        N/A
$$

WIZ051-052-058>065-066-070>072-200100-
SOUTHEAST WISCONSIN

CITY           SKY/WX    TMP DP  RH WIND       PRES   REMARKS
MILWAUKEE      CLOUDY    43  31  62 SE5       30.07S
6HR MIN TEMP:  43; 6HR MAX TEMP:  58;

KENOSHA*       CLEAR     45  31  58 SE6       30.07R
RACINE*        CLEAR     43  31  62 SE6       30.09R
WEST BEND      CLEAR     43  30  61 CALM      30.07S
$$

INZ001>003-010>013-019-020-200100-
NORTHWEST INDIANA

CITY           SKY/WX    TMP DP  RH WIND       PRES   REMARKS
GARY*          PTCLDY    46  32  57 CALM      30.08R
MICHIGAN CITY* NOT AVBL
RENSSELAER*    NOT AVBL
VALPARAISO     CLEAR     56  36  47 CALM      30.09R
$$

LMZ740>746-200100-
SOUTHERN LAKE MICHIGAN

STATION/POSITION TIME  SKY/WX   TEMP WIND        PRES    VSBY
                                AIR  DIR/SP/G
                 (UTC)          (F)  (DEG/KT/KT) (MB)    (MI)
HARRISON CRIB    2330            44  170/  6/  7   N/A
BURNHAM HARBOR   2345            42   CALM  /  3   N/A
CALUMET HARBOR   2330            43   90/  5/  7 1017.9R
BURNS HARBOR     2340            39   80/  5/  8 1019.0S
MICHIGAN CITY    2330            53   50/  5/  5   N/A
$$

ABBREVIATIONS USED IN REMARKS
   TC - TEMPERATURE IN CELSIUS
  WCI - WIND CHILL INDEX
   HX - HEAT INDEX
  VSB - VISIBILITY
$$




USA.gov is the U.S. government's official web portal to all federal, state and local government web resources and services.